SS2 Bot 1 (gravel) (6.50 km)

Stage-

Pos # Driver Time Diff Prev Diff 1st
1. 7 GBRK. MEEKE 4:04.5
2. 2 ESTO. TÄNAK 4:04.9 +0.4 +0.4
3. 6 ESPD. SORDO 4:05.3 +0.4 +0.8
4. 14 NORM. OSTBERG 4:05.3 +0.0 +0.8
5. 5 BELT. NEUVILLE 4:05.5 +0.2 +1.0
6. 4 NORA. MIKKELSEN 4:06.1 +0.6 +1.6
7. 12 FINE. LAPPI 4:06.3 +0.2 +1.8
8. 8 FRAS. LEFEBVRE 4:07.2 +0.9 +2.7
9. 3 GBRE. EVANS 4:07.8 +0.6 +3.3
10. 1 FRAS. OGIER 4:08.0 +0.2 +3.5
11. 10 FINJ. LATVALA 4:09.4 +1.4 +4.9
12. 11 FINJ. HÄNNINEN 4:09.8 +0.4 +5.3
13. 82 FRAE. CAMILI 4:10.8 +1.0 +6.3
14. 32 FINT. SUNINEN 4:11.3 +0.5 +6.8
15. 83 NORO. VEIBY 4:12.7 +1.4 +8.2
16. 31 CZEJ. KOPECKY 4:16.0 +3.3 +11.5
17. 84 FRAP. LOUBET 4:16.6 +0.6 +12.1
18. 40 JPNH. ARAI 4:18.8 +2.2 +14.3
19. 39 FRAY. BONATO 4:20.1 +1.3 +15.6
20. 33 ROUS. TEMPESTINI 4:22.6 +2.5 +18.1
21. 34 MEXB. GUERRA 4:22.8 +0.2 +18.3
22. 42 FINJ. NORDGREN 4:22.8 +0.0 +18.3
23. 9 AREK. AL QASSIMI 4:23.3 +0.5 +18.8
24. 43 GBRJ. ARMSTRONG 4:23.6 +0.3 +19.1
25. 46 GBRR. YATES 4:23.6 +0.0 +19.1
26. 88 CHEJ. TÖDTLI 4:23.8 +0.2 +19.3
27. 45 TURO. AVCIOGLU 4:24.1 +0.3 +19.6
28. 37 POLL. PIENIAZEK 4:26.1 +2.0 +21.6
29. 44 ESPC. GARCIA 4:26.3 +0.2 +21.8
30. 20 UKRV. GORBAN 4:27.7 +1.4 +23.2
31. 89 ECUM. NAVAS 4:36.2 +8.5 +31.7
32. 63 FRAN. CIAMIN 4:38.8 +2.6 +34.3
33. 65 FRAT. FOLB 4:39.1 +0.3 +34.6
34. 62 ESPN. SOLANS 4:41.7 +2.6 +37.2
35. 21 FRAJ. RAOUX 4:42.3 +0.6 +37.8
36. 87 IRLE. BOLAND 4:44.1 +1.8 +39.6
37. 66 SWED. RADSTRÖM 4:44.7 +0.6 +40.2
38. 64 DEUJ. TANNERT 4:45.7 +1.0 +41.2
39. 61 FRAR. ASTIER 4:45.8 +0.1 +41.3
40. 93 ESPF. MACIAS 4:47.6 +1.8 +43.1
41. 90 ESPJ. SOLANS 4:51.2 +3.6 +46.7
42. 95 ANDM. BESOLI 4:55.2 +4.0 +50.7
43. 91 ESPJ. FONT 4:58.3 +3.1 +53.8
44. 22 GRCJ. SERDERIDIS 4:58.8 +0.5 +54.3
45. 94 ESPG. SOSA 4:59.4 +0.6 +54.9
46. 100 ESPJ. DOMENECH 5:09.2 +9.8 +1:04.7
47. 101 ESPZ. ESTEBAN 5:09.2 +0.0 +1:04.7
48. 102 DEUR. KUHN 5:09.2 +0.0 +1:04.7
49. 103 PRTJ. RAMOS 5:09.2 +0.0 +1:04.7
50. 104 ESPR. ROZADA 5:09.2 +0.0 +1:04.7
51. 105 ESPJ. BASSAS 5:09.2 +0.0 +1:04.7
52. 106 ESPA. VILA 5:09.2 +0.0 +1:04.7
53. 107 ESPS. FRANCOLI 5:09.2 +0.0 +1:04.7
54. 108 ESPJ. SALINAS 5:09.2 +0.0 +1:04.7
55. 109 ESPA. SERRATOSA 5:09.2 +0.0 +1:04.7
56. 110 ESPM. PARADELL 5:09.2 +0.0 +1:04.7
57. 111 ANDC. RIBEIRO 5:09.2 +0.0 +1:04.7
58. 112 ESPP. SUAREZ 5:09.2 +0.0 +1:04.7
59. 113 ESPÓ. FREIRE 5:09.2 +0.0 +1:04.7
60. 114 ESPE. SANS 5:09.2 +0.0 +1:04.7
61. 115 ITAC. GIAMPAOLI 5:09.2 +0.0 +1:04.7
62. 96 SWEM. ANDERSSON 5:09.2 +0.0 +1:04.7
63. 97 ITAG. TAVELLI 5:09.2 +0.0 +1:04.7
64. 98 FRAJ. GUIBERT 5:09.2 +0.0 +1:04.7
65. 99 FRAP. GOMEZ 5:09.2 +0.0 +1:04.7
66. 92 ESPJ. PELAEZ 5:09.2 +0.0 +1:04.7
67. 35 GBRG. GREENSMITH 11:11.3 +6:02.1 +7:06.8
68. 38 JPNT. KATSUTA 11:11.3 +0.0 +7:06.8
69. 41 ITAF. ANDOLFI 11:11.3 +0.0 +7:06.8

Overall-

Pos # Driver Time Diff Prev Diff 1st
1. 2 ESTO. TÄNAK 11:21.6
2. 14 NORM. OSTBERG 11:23.8 +2.2 +2.2
3. 7 GBRK. MEEKE 11:23.9 +0.1 +2.3
4. 5 BELT. NEUVILLE 11:24.3 +0.4 +2.7
5. 4 NORA. MIKKELSEN 11:25.9 +1.6 +4.3
6. 6 ESPD. SORDO 11:27.3 +1.4 +5.7
7. 1 FRAS. OGIER 11:27.7 +0.4 +6.1
8. 3 GBRE. EVANS 11:28.8 +1.1 +7.2
9. 10 FINJ. LATVALA 11:29.3 +0.5 +7.7
10. 12 FINE. LAPPI 11:30.6 +1.3 +9.0
11. 11 FINJ. HÄNNINEN 11:33.8 +3.2 +12.2
12. 8 FRAS. LEFEBVRE 11:36.8 +3.0 +15.2
13. 32 FINT. SUNINEN 11:40.3 +3.5 +18.7
14. 82 FRAE. CAMILI 11:41.0 +0.7 +19.4
15. 83 NORO. VEIBY 11:43.6 +2.6 +22.0
16. 31 CZEJ. KOPECKY 11:57.5 +13.9 +35.9
17. 84 FRAP. LOUBET 11:57.5 +0.0 +35.9
18. 40 JPNH. ARAI 12:03.1 +5.6 +41.5
19. 39 FRAY. BONATO 12:07.3 +4.2 +45.7
20. 33 ROUS. TEMPESTINI 12:10.6 +3.3 +49.0
21. 34 MEXB. GUERRA 12:19.2 +8.6 +57.6
22. 9 AREK. AL QASSIMI 12:19.3 +0.1 +57.7
23. 46 GBRR. YATES 12:23.7 +4.4 +1:02.1
24. 45 TURO. AVCIOGLU 12:24.2 +0.5 +1:02.6
25. 37 POLL. PIENIAZEK 12:24.3 +0.1 +1:02.7
26. 88 CHEJ. TÖDTLI 12:28.2 +3.9 +1:06.6
27. 44 ESPC. GARCIA 12:30.4 +2.2 +1:08.8
28. 42 FINJ. NORDGREN 12:32.0 +1.6 +1:10.4
29. 20 UKRV. GORBAN 12:34.1 +2.1 +1:12.5
30. 43 GBRJ. ARMSTRONG 12:50.6 +16.5 +1:29.0
31. 63 FRAN. CIAMIN 12:55.5 +4.9 +1:33.9
32. 65 FRAT. FOLB 12:56.0 +0.5 +1:34.4
33. 62 ESPN. SOLANS 12:57.9 +1.9 +1:36.3
34. 66 SWED. RADSTRÖM 13:00.0 +2.1 +1:38.4
35. 89 ECUM. NAVAS 13:01.0 +1.0 +1:39.4
36. 64 DEUJ. TANNERT 13:14.5 +13.5 +1:52.9
37. 61 FRAR. ASTIER 13:20.1 +5.6 +1:58.5
38. 21 FRAJ. RAOUX 13:23.3 +3.2 +2:01.7
39. 87 IRLE. BOLAND 13:28.0 +4.7 +2:06.4
40. 90 ESPJ. SOLANS 13:29.1 +1.1 +2:07.5
41. 93 ESPF. MACIAS 13:36.8 +7.7 +2:15.2
42. 95 ANDM. BESOLI 13:53.2 +16.4 +2:31.6
43. 96 SWEM. ANDERSSON 14:01.4 +8.2 +2:39.8
44. 22 GRCJ. SERDERIDIS 14:05.9 +4.5 +2:44.3
45. 91 ESPJ. FONT 14:06.1 +0.2 +2:44.5
46. 92 ESPJ. PELAEZ 14:11.5 +5.4 +2:49.9
47. 94 ESPG. SOSA 14:16.4 +4.9 +2:54.8
48. 104 ESPR. ROZADA 14:20.7 +4.3 +2:59.1
49. 107 ESPS. FRANCOLI 14:27.3 +6.6 +3:05.7
50. 106 ESPA. VILA 14:28.0 +0.7 +3:06.4
51. 108 ESPJ. SALINAS 14:28.1 +0.1 +3:06.5
52. 111 ANDC. RIBEIRO 14:29.6 +1.5 +3:08.0
53. 105 ESPJ. BASSAS 14:31.8 +2.2 +3:10.2
54. 100 ESPJ. DOMENECH 14:38.4 +6.6 +3:16.8
55. 109 ESPA. SERRATOSA 14:45.6 +7.2 +3:24.0
56. 101 ESPZ. ESTEBAN 14:48.7 +3.1 +3:27.1
57. 97 ITAG. TAVELLI 14:53.5 +4.8 +3:31.9
58. 110 ESPM. PARADELL 15:05.5 +12.0 +3:43.9
59. 103 PRTJ. RAMOS 15:07.1 +1.6 +3:45.5
60. 112 ESPP. SUAREZ 15:09.0 +1.9 +3:47.4
61. 102 DEUR. KUHN 15:13.7 +4.7 +3:52.1
62. 98 FRAJ. GUIBERT 15:23.6 +9.9 +4:02.0
63. 115 ITAC. GIAMPAOLI 15:24.3 +0.7 +4:02.7
64. 99 FRAP. GOMEZ 15:35.6 +11.3 +4:14.0
65. 113 ESPÓ. FREIRE 16:05.6 +30.0 +4:44.0
66. 114 ESPE. SANS 16:36.0 +30.4 +5:14.4
67. 35 GBRG. GREENSMITH 25:40.3 +9:04.3 +14:18.7
68. 41 ITAF. ANDOLFI 25:40.3 +0.0 +14:18.7
69. 38 JPNT. KATSUTA 44:44.7 +19:04.4 +33:23.1